Location: Thompson
(55.7500°N, 97.8670°W)
Time: 00:15:03
(UTC-05:00)

Amateur Radio Satellites - All Passes

Search period start: 24 July 2014 23:45
Search period end: 25 July 2014 23:45
Location: Thompson, 55.7500°N, 97.8670°W

Satellite Date Start Highest point End Downlink Frequencies (MHz)
Time Altitude Azimuth
HO-68 24 Jul 23:44:59 23:49:14 16° 279° (W) 23:53:30 435.675 MHz FM
FUNcube-1 24 Jul 23:51:01 23:54:49 29° 266° (W) 23:58:34 145.950 - 145.970 MHz USB
UOSAT-12 24 Jul 23:52:16 23:57:03 83° 41° (NE) 00:01:47 437.025 FM, 437.400 FM
RS-15 24 Jul 23:53:19 00:04:06 66° 235° (SW) 00:15:12 29.354 - 29.394 USB, Beacon 29.352 USB
MaSat-1 25 Jul 00:14:14 00:18:34 84° 307° (NW) 00:23:35 437.345 MHz
UOSAT-12 25 Jul 01:32:57 01:36:47 25° 241° (WSW) 01:40:35 437.025 FM, 437.400 FM
OPAL 25 Jul 01:35:53 01:36:45 10° 35° (NE) 01:37:37 ?
Lituanica SAT-1 25 Jul 01:37:38 01:38:12 11° 154° (SSE) 01:38:46 437.275 MHz beacon
Sapphire 25 Jul 01:50:05 01:53:27 17° 107° (ESE) 01:56:49 437.095 MHz 1200 baud AX-25 AFSK
MaSat-1 25 Jul 01:52:43 01:56:41 27° 332° (NNW) 02:01:02 437.345 MHz
RS-15 25 Jul 02:06:39 02:14:18 22° 260° (W) 02:22:09 29.354 - 29.394 USB, Beacon 29.352 USB
Oscar 19 25 Jul 02:14:35 02:18:41 23° 90° (E) 02:22:46 437.125 CW, 437.150 USB
PCSat 25 Jul 02:22:20 02:26:56 29° 114° (ESE) 02:31:34 145.825 MHz
Oscar 16 25 Jul 02:41:49 02:46:37 37° 96° (E) 02:51:23 437.025 USB, Beacon 2401.1428
ISS 25 Jul 02:45:13 02:47:24 16° 149° (SSE) 02:49:35 145.800 FM
ITAMSAT 1 25 Jul 02:53:38 02:57:51 24° 91° (E) 03:02:02 435.822 SSB
JAS-1B 25 Jul 02:56:50 03:05:10 30° 83° (E) 03:12:46 435.800 - 435.900 CW/SSB
AO-Echo 25 Jul 03:06:01 03:10:39 31° 93° (E) 03:15:08 ?
Lituanica SAT-1 25 Jul 03:08:32 03:10:20 24° 173° (S) 03:12:08 437.275 MHz beacon
Gurwin Techsat 1B 25 Jul 03:09:20 03:12:42 17° 85° (E) 03:16:03 435.225 FM
OPAL 25 Jul 03:09:55 03:14:22 35° 57° (ENE) 03:18:52 ?
AO-27 25 Jul 03:11:25 03:16:06 33° 94° (E) 03:20:45 436.795 MHz FM
Uribyol 2 25 Jul 03:14:00 03:18:45 35° 95° (E) 03:23:27 436.500 FM
Sapphire 25 Jul 03:30:37 03:36:00 71° 128° (SE) 03:41:26 437.095 MHz 1200 baud AX-25 AFSK
MaSat-1 25 Jul 03:32:21 03:35:41 18° 356° (N) 03:39:10 437.345 MHz
Oscar 19 25 Jul 03:53:24 03:58:34 73° 290° (WNW) 04:03:43 437.125 CW, 437.150 USB
AO-7 25 Jul 03:57:27 04:01:11 13° 77° (ENE) 04:04:53 29.400 - 29.500 MHz
PCSat 25 Jul 04:04:33 04:09:58 75° 316° (NW) 04:15:27 145.825 MHz
ISS 25 Jul 04:20:24 04:23:31 36° 168° (SSE) 04:26:38 145.800 FM
Oscar 16 25 Jul 04:21:12 04:26:07 46° 296° (WNW) 04:31:01 437.025 USB, Beacon 2401.1428
TMSAT-1 25 Jul 04:26:43 04:31:50 45° 98° (E) 04:36:54 436.925 FM
ITAMSAT 1 25 Jul 04:32:41 04:37:52 70° 291° (WNW) 04:43:01 435.822 SSB
Lituanica SAT-1 25 Jul 04:40:54 04:42:36 21° 192° (SSW) 04:44:18 437.275 MHz beacon
AO-Echo 25 Jul 04:44:37 04:49:43 54° 294° (WNW) 04:54:38 ?
JAS-1B 25 Jul 04:47:03 04:57:02 86° 108° (ESE) 05:05:56 435.800 - 435.900 CW/SSB
Gurwin Techsat 1B 25 Jul 04:48:12 04:53:34 81° 105° (ESE) 04:58:53 435.225 FM
OPAL 25 Jul 04:48:23 04:53:10 49° 257° (WSW) 04:58:01 ?
AO-27 25 Jul 04:50:49 04:55:53 52° 295° (WNW) 05:00:54 436.795 MHz FM
Uribyol 2 25 Jul 04:53:26 04:58:25 49° 296° (WNW) 05:03:22 436.500 FM
Uosat F 25 Jul 04:59:21 05:03:27 24° 91° (E) 05:07:30 435.120 FM
MaSat-1 25 Jul 05:10:49 05:14:48 22° 20° (NNE) 05:18:55 437.345 MHz
Sapphire 25 Jul 05:14:45 05:19:51 40° 331° (NNW) 05:24:58 437.095 MHz 1200 baud AX-25 AFSK
STRAND 1 25 Jul 05:26:47 05:30:33 21° 51° (NE) 05:34:19 ?
Oscar 19 25 Jul 05:33:45 05:37:10 18° 311° (NW) 05:40:35 437.125 CW, 437.150 USB
Oscar 10/S400 25 Jul 05:41:17 06:44:15 32° 222° (SW) 10:55:34 145.825 - 145.975 CW/USB, Beacon 145.810 USB
AO-7 25 Jul 05:48:06 05:56:14 51° 101° (E) 06:04:15 29.400 - 29.500 MHz
PCSat 25 Jul 05:49:23 05:54:13 31° 340° (NNW) 05:59:03 145.825 MHz
ISS 25 Jul 05:56:42 05:59:52 38° 188° (S) 06:03:02 145.800 FM
Oscar 16 25 Jul 06:02:13 06:04:21 13° 318° (NW) 06:06:30 437.025 USB, Beacon 2401.1428
TMSAT-1 25 Jul 06:06:50 06:11:45 40° 299° (WNW) 06:16:39 436.925 FM
JAS-2 25 Jul 06:09:40 06:12:42 14° 76° (ENE) 06:15:35 435.800 - 435.900 CW/SSB, 435.910 FM
ITAMSAT 1 25 Jul 06:13:11 06:16:35 18° 312° (NW) 06:19:58 435.822 SSB
AO-Echo 25 Jul 06:24:42 06:27:27 15° 316° (NW) 06:30:10 ?
Gurwin Techsat 1B 25 Jul 06:28:49 06:33:03 25° 307° (NW) 06:37:17 435.225 FM
AO-27 25 Jul 06:31:42 06:34:23 14° 317° (NW) 06:37:03 436.795 MHz FM
Uribyol 2 25 Jul 06:34:25 06:36:50 13° 318° (NW) 06:39:13 436.500 FM
Uosat F 25 Jul 06:37:41 06:42:43 68° 292° (WNW) 06:47:42 435.120 FM
JAS-1B 25 Jul 06:37:51 06:46:40 39° 312° (NW) 06:54:51 435.800 - 435.900 CW/SSB
MaSat-1 25 Jul 06:48:13 06:53:20 49° 43° (NE) 06:58:30 437.345 MHz
Sapphire 25 Jul 07:00:09 07:04:38 25° 356° (N) 07:09:07 437.095 MHz 1200 baud AX-25 AFSK
Hamsat 25 Jul 07:00:29 07:04:16 29° 94° (E) 07:08:02 145.90 MHz
STRAND 1 25 Jul 07:03:58 07:09:08 86° 72° (ENE) 07:14:19 ?
KITSAT 1 25 Jul 07:15:37 07:22:12 29° 108° (ESE) 07:28:48 435.175 FM
ISS 25 Jul 07:33:34 07:36:03 19° 208° (SSW) 07:38:32 145.800 FM
PCSat 25 Jul 07:34:40 07:39:10 25° 5° (N) 07:43:39 145.825 MHz
AO-7 25 Jul 07:41:07 07:49:13 57° 304° (NW) 07:57:16 29.400 - 29.500 MHz
TMSAT-1 25 Jul 07:48:43 07:50:24 12° 321° (NW) 07:52:05 436.925 FM
JAS-2 25 Jul 07:52:58 07:59:28 61° 100° (E) 08:05:09 435.800 - 435.900 CW/SSB, 435.910 FM
Uosat F 25 Jul 08:17:33 08:20:42 17° 313° (NW) 08:23:51 435.120 FM
MaSat-1 25 Jul 08:25:43 08:30:47 47° 243° (WSW) 08:35:48 437.345 MHz
JAS-1B 25 Jul 08:28:16 08:34:36 20° 337° (NNW) 08:40:47 435.800 - 435.900 CW/SSB
Hamsat 25 Jul 08:36:20 08:40:24 43° 293° (WNW) 08:44:28 145.90 MHz
Sapphire 25 Jul 08:44:42 08:49:34 32° 21° (NNE) 08:54:26 437.095 MHz 1200 baud AX-25 AFSK
STRAND 1 25 Jul 08:45:20 08:49:01 20° 272° (W) 08:52:43 ?
SO-67 25 Jul 08:46:21 08:49:49 58° 101° (E) 08:53:15 435.3500 MHz FM
KITSAT 1 25 Jul 09:08:32 09:16:40 84° 132° (SE) 09:24:49 435.175 FM
HO-68 25 Jul 09:12:59 09:17:51 19° 84° (E) 09:22:40 435.675 MHz FM
PCSat 25 Jul 09:18:45 09:23:54 41° 30° (NNE) 09:29:03 145.825 MHz
AO-7 25 Jul 09:34:16 09:40:30 24° 329° (NNW) 09:46:44 29.400 - 29.500 MHz
Saudisat 1A 25 Jul 09:37:14 09:41:01 28° 122° (ESE) 09:44:49 436.775 MHz
JAS-2 25 Jul 09:38:20 09:44:16 36° 305° (NW) 09:49:35 435.800 - 435.900 CW/SSB, 435.910 FM
JAS-1B 25 Jul 10:16:32 10:21:37 16° 3° (N) 10:26:40 435.800 - 435.900 CW/SSB
SO-67 25 Jul 10:20:11 10:22:34 18° 301° (WNW) 10:24:57 435.3500 MHz FM
Sapphire 25 Jul 10:28:18 10:33:46 79° 45° (NE) 10:39:13 437.095 MHz 1200 baud AX-25 AFSK
UKube-1 25 Jul 10:32:14 10:36:18 36° 97° (E) 10:40:19 145.840 MHz, 145.915 MHz
HO-68 25 Jul 10:59:43 11:06:54 72° 106° (ESE) 11:14:02 435.675 MHz FM
PCSat 25 Jul 11:02:16 11:07:41 67° 233° (SW) 11:13:03 145.825 MHz
KITSAT 1 25 Jul 11:04:58 11:12:48 49° 338° (NNW) 11:20:39 435.175 FM
Saudisat 1A 25 Jul 11:15:54 11:20:20 70° 323° (NW) 11:24:47 436.775 MHz
Oscar 11 25 Jul 11:21:49 11:26:07 58° 101° (ESE) 11:30:24 145.825 FM, Beacon 2401.500 USB
JAS-2 25 Jul 11:24:40 11:27:29 13° 330° (NNW) 11:30:12 435.800 - 435.900 CW/SSB, 435.910 FM
AO-7 25 Jul 11:26:08 11:30:34 16° 356° (N) 11:34:59 29.400 - 29.500 MHz
FUNcube-1 25 Jul 11:32:02 11:35:47 31° 95° (E) 11:39:32 145.950 - 145.970 MHz USB
JAS-1B 25 Jul 12:01:56 12:08:46 23° 30° (NNE) 12:15:46 435.800 - 435.900 CW/SSB
Oscar 19 25 Jul 12:02:05 12:05:17 17° 47° (NE) 12:08:30 437.125 CW, 437.150 USB
UKube-1 25 Jul 12:08:30 12:12:33 37° 297° (WNW) 12:16:34 145.840 MHz, 145.915 MHz
Sapphire 25 Jul 12:12:14 12:16:45 27° 247° (WSW) 12:21:15 437.095 MHz 1200 baud AX-25 AFSK
Oscar 16 25 Jul 12:28:32 12:32:38 25° 54° (NE) 12:36:44 437.025 USB, Beacon 2401.1428
ITAMSAT 1 25 Jul 12:41:50 12:45:22 19° 48° (NE) 12:48:54 435.822 SSB
PCSat 25 Jul 12:47:02 12:50:10 16° 254° (WSW) 12:53:18 145.825 MHz
HO-68 25 Jul 12:47:50 12:54:15 38° 309° (NW) 13:00:39 435.675 MHz FM
AO-Echo 25 Jul 12:49:16 12:53:07 21° 51° (NE) 12:56:59 ?
Saudisat 1A 25 Jul 12:56:38 13:00:35 30° 346° (NNW) 13:04:31 436.775 MHz
Oscar 11 25 Jul 12:58:31 13:02:02 25° 301° (WNW) 13:05:33 145.825 FM, Beacon 2401.500 USB
AO-27 25 Jul 12:59:13 13:03:18 24° 53° (NE) 13:07:23 436.795 MHz FM
Gurwin Techsat 1B 25 Jul 13:00:57 13:03:39 14° 43° (NE) 13:06:22 435.225 FM
Uribyol 2 25 Jul 13:01:28 13:05:38 25° 54° (NE) 13:09:47 436.500 FM
KITSAT 1 25 Jul 13:02:21 13:09:58 41° 6° (N) 13:17:33 435.175 FM
FUNcube-1 25 Jul 13:08:25 13:12:18 38° 295° (WNW) 13:16:10 145.950 - 145.970 MHz USB
AO-7 25 Jul 13:14:52 13:20:26 20° 23° (NNE) 13:25:58 29.400 - 29.500 MHz
SO-50 25 Jul 13:31:27 13:32:26 11° 109° (ESE) 13:33:25 436.795 FM
Oscar 19 25 Jul 13:38:45 13:43:49 67° 69° (ENE) 13:48:56 437.125 CW, 437.150 USB
JAS-1B 25 Jul 13:48:23 13:57:04 49° 54° (NE) 14:06:23 435.800 - 435.900 CW/SSB
Oscar 16 25 Jul 14:06:25 14:11:33 77° 255° (WSW) 14:16:43 437.025 USB, Beacon 2401.1428
TMSAT-1 25 Jul 14:16:22 14:20:56 31° 57° (ENE) 14:25:32 436.925 FM
ITAMSAT 1 25 Jul 14:18:55 14:24:07 74° 70° (ENE) 14:29:21 435.822 SSB
AO-Echo 25 Jul 14:25:53 14:31:13 81° 72° (ENE) 14:36:34 ?
RS-15 25 Jul 14:26:25 14:36:03 37° 110° (ESE) 14:45:35 29.354 - 29.394 USB, Beacon 29.352 USB
HO-68 25 Jul 14:36:20 14:40:09 15° 333° (NNW) 14:43:58 435.675 MHz FM
AO-27 25 Jul 14:37:04 14:42:19 84° 253° (WSW) 14:47:35 436.795 MHz FM
Saudisat 1A 25 Jul 14:37:25 14:41:16 28° 10° (N) 14:45:06 436.775 MHz
Gurwin Techsat 1B 25 Jul 14:37:26 14:42:33 51° 65° (ENE) 14:47:43 435.225 FM
Uribyol 2 25 Jul 14:39:26 14:44:39 79° 254° (WSW) 14:49:54 436.500 FM
Uosat F 25 Jul 14:43:30 14:46:46 18° 48° (NE) 14:50:02 435.120 FM
KITSAT 1 25 Jul 14:58:44 15:06:49 64° 34° (NE) 15:14:50 435.175 FM
AO-7 25 Jul 15:03:35 15:11:16 43° 49° (NE) 15:18:57 29.400 - 29.500 MHz
SO-50 25 Jul 15:07:37 15:12:00 52° 129° (SE) 15:16:29 436.795 FM
Oscar 19 25 Jul 15:19:29 15:23:39 25° 269° (W) 15:27:52 437.125 CW, 437.150 USB
JAS-1B 25 Jul 15:38:10 15:47:11 69° 258° (WSW) 15:57:09 435.800 - 435.900 CW/SSB
Oscar 16 25 Jul 15:48:51 15:51:49 15° 276° (W) 15:54:47 437.025 USB, Beacon 2401.1428
UOSAT-12 25 Jul 15:51:34 15:54:45 18° 115° (ESE) 15:57:57 437.025 FM, 437.400 FM
TMSAT-1 25 Jul 15:55:20 16:00:36 62° 258° (WSW) 16:05:54 436.925 FM
ITAMSAT 1 25 Jul 16:00:03 16:04:11 23° 270° (W) 16:08:20 435.822 SSB
AO-Echo 25 Jul 16:06:34 16:10:37 22° 272° (W) 16:14:41 ?
Saudisat 1A 25 Jul 16:17:17 16:21:39 55° 33° (NNE) 16:26:00 436.775 MHz
Gurwin Techsat 1B 25 Jul 16:17:56 16:22:46 35° 265° (W) 16:27:37 435.225 FM
AO-27 25 Jul 16:19:16 16:22:39 17° 274° (W) 16:26:04 436.795 MHz FM
Uosat F 25 Jul 16:19:46 16:24:48 71° 69° (ENE) 16:29:51 435.120 FM
Uribyol 2 25 Jul 16:21:53 16:25:01 16° 275° (W) 16:28:10 436.500 FM
JAS-2 25 Jul 16:28:45 16:34:24 24° 45° (NE) 16:39:43 435.800 - 435.900 CW/SSB, 435.910 FM
Hamsat 25 Jul 16:28:51 16:30:00 11° 48° (NE) 16:31:08 145.90 MHz
RS-15 25 Jul 16:36:14 16:47:17 90° 136° (SE) 16:58:19 29.354 - 29.394 USB, Beacon 29.352 USB
SO-50 25 Jul 16:48:18 16:52:41 46° 332° (NNW) 16:57:12 436.795 FM
OPAL 25 Jul 16:50:41 16:54:42 23° 94° (E) 16:58:44 ?
KITSAT 1 25 Jul 16:54:25 17:02:14 55° 239° (WSW) 17:10:00 435.175 FM
AO-7 25 Jul 16:55:21 17:03:43 72° 252° (WSW) 17:12:07 29.400 - 29.500 MHz
UOSAT-12 25 Jul 17:29:35 17:34:15 79° 136° (SE) 17:39:00 437.025 FM, 437.400 FM
JAS-1B 25 Jul 17:32:43 17:39:37 23° 283° (WNW) 17:47:00 435.800 - 435.900 CW/SSB
TMSAT-1 25 Jul 17:39:25 17:41:39 13° 279° (W) 17:43:54 436.925 FM
Saudisat 1A 25 Jul 17:57:04 18:01:11 38° 234° (SW) 18:05:15 436.775 MHz
SO-67 25 Jul 17:57:16 17:57:34 10° 53° (NE) 17:57:53 435.3500 MHz FM
Uosat F 25 Jul 18:00:05 18:04:06 23° 269° (W) 18:08:08 435.120 FM
Hamsat 25 Jul 18:01:01 18:05:05 53° 69° (ENE) 18:09:12 145.90 MHz
HO-68 25 Jul 18:06:16 18:09:56 15° 26° (NNE) 18:13:36 435.675 MHz FM
JAS-2 25 Jul 18:10:44 18:18:25 67° 67° (ENE) 18:25:32 435.800 - 435.900 CW/SSB, 435.910 FM
OPAL 25 Jul 18:29:04 18:34:05 72° 294° (WNW) 18:39:09 ?
SO-50 25 Jul 18:30:13 18:34:12 28° 356° (N) 18:38:17 436.795 FM
RS-15 25 Jul 18:50:01 19:00:46 56° 348° (NNW) 19:11:37 29.354 - 29.394 USB, Beacon 29.352 USB
KITSAT 1 25 Jul 18:51:39 18:55:53 15° 262° (W) 19:00:06 435.175 FM
AO-7 25 Jul 18:52:02 18:58:04 21° 276° (W) 19:04:08 29.400 - 29.500 MHz
STRAND 1 25 Jul 19:07:55 19:11:15 17° 86° (E) 19:14:33 ?
UOSAT-12 25 Jul 19:10:26 19:14:50 38° 338° (NNW) 19:19:17 437.025 FM, 437.400 FM
SO-67 25 Jul 19:26:31 19:29:58 66° 73° (ENE) 19:33:27 435.3500 MHz FM
Hamsat 25 Jul 19:38:00 19:41:23 23° 269° (W) 19:44:47 145.90 MHz
HO-68 25 Jul 19:49:25 19:55:46 36° 50° (NE) 20:02:06 435.675 MHz FM
JAS-2 25 Jul 19:56:38 20:03:49 39° 267° (W) 20:10:35 435.800 - 435.900 CW/SSB, 435.910 FM
UKube-1 25 Jul 20:00:51 20:03:37 17° 51° (NE) 20:06:23 145.840 MHz, 145.915 MHz
OPAL 25 Jul 20:08:53 20:12:16 19° 314° (NW) 20:15:40 ?
SO-50 25 Jul 20:11:33 20:15:52 36° 20° (NNE) 20:20:15 436.795 FM
STRAND 1 25 Jul 20:46:05 20:51:15 85° 107° (ESE) 20:56:22 ?
Oscar 11 25 Jul 20:49:24 20:52:38 21° 56° (ENE) 20:55:52 145.825 FM, Beacon 2401.500 USB
UOSAT-12 25 Jul 20:51:56 20:56:03 28° 2° (N) 21:00:11 437.025 FM, 437.400 FM
SO-67 25 Jul 21:01:32 21:03:29 14° 272° (W) 21:05:26 435.3500 MHz FM
FUNcube-1 25 Jul 21:02:06 21:04:09 13° 51° (NE) 21:06:11 145.950 - 145.970 MHz USB
RS-15 25 Jul 21:04:17 21:15:08 61° 20° (NNE) 21:26:11 29.354 - 29.394 USB, Beacon 29.352 USB
UKube-1 25 Jul 21:34:50 21:39:13 82° 72° (ENE) 21:43:38 145.840 MHz, 145.915 MHz
HO-68 25 Jul 21:35:51 21:43:02 76° 253° (WSW) 21:50:15 435.675 MHz FM
SO-50 25 Jul 21:52:12 21:56:55 88° 222° (SW) 22:01:43 436.795 FM
Oscar 11 25 Jul 22:24:07 22:28:25 71° 256° (WSW) 22:32:46 145.825 FM, Beacon 2401.500 USB
MaSat-1 25 Jul 22:25:26 22:28:36 20° 105° (ESE) 22:32:04 437.345 MHz
STRAND 1 25 Jul 22:25:59 22:29:55 23° 308° (NW) 22:33:50 ?
UOSAT-12 25 Jul 22:32:39 22:37:13 43° 26° (NNE) 22:41:45 437.025 FM, 437.400 FM
FUNcube-1 25 Jul 22:35:34 22:39:51 66° 71° (ENE) 22:44:04 145.950 - 145.970 MHz USB
UKube-1 25 Jul 23:13:11 23:16:01 17° 272° (W) 23:18:52 145.840 MHz, 145.915 MHz
RS-15 25 Jul 23:17:14 23:28:11 77° 229° (SW) 23:39:26 29.354 - 29.394 USB, Beacon 29.352 USB
HO-68 25 Jul 23:26:51 23:31:59 21° 275° (W) 23:37:08 435.675 MHz FM
SO-50 25 Jul 23:33:25 23:36:59 22° 243° (WSW) 23:40:36 436.795 FM
